Arbor Vitae, WI

8:07 AM CST on January 19, 2018 (GMT -0600)
Lakeland-Lee Memorial

Weather History for KARV - March, 2012

Change the Weather History Date:

Saturday, March 10, 2012

  Actual Average Record
Temperature  
Mean Temperature 38 °F -  
Max Temperature 51 °F 35 °F 61 °F (1967)
Min Temperature 26 °F 10 °F -20 °F (1950)
Degree Days  
Heating Degree Days 26    
Moisture  
Dew Point 19 °F    
Average Humidity 47    
Maximum Humidity 64    
Minimum Humidity 35    
Precipitation  
Precipitation 0.00 in - - ()
Sea Level Pressure  
Sea Level Pressure 29.98 in    
Wind  
Wind Speed 13 mph (SSW)    
Max Wind Speed 21 mph    
Max Gust Speed 28 mph    
Visibility 10 miles    
Events      
Averages and records for this station are not official NWS values.
T = Trace of Precipitation, MM = Missing Value Source: NWS Daily Summary

Daily Weather History Graph

Daily Weather History Graph

Search for Another Location

Airport or City:

Trip Planner

Search our weather history database for the weather conditions in past years. The results will help you decide how hot, cold, wet, or windy it might be!

Date:

Astronomy

Mar. 10, 2012 Rise Set
Actual Time 6:20 AM CST 5:58 PM CST
Civil Twilight 5:50 AM CST 6:28 PM CST
Nautical Twilight 5:15 AM CST 7:03 PM CST
Astronomical Twilight 4:40 AM CST 7:38 PM CST
Moon 9:25 PM CST (3/10) 7:03 AM CST (3/10)
Length of Visible Light 12h 38m
Length of Day
11h 38m
Waning Gibbous, 92% of the Moon is Illuminated
Mar 10
Waning Gibbous
Mar 14
Last Quarter
Mar 22
New
Mar 30
First Quarter
Apr 6
Full

Hourly Weather History & Observations

Time (CST) Temp. Windchill Dew Point Humidity Pressure Visibility Wind Dir Wind Speed Gust Speed Precip Events Conditions
12:15 AM 26.6 °F 16.2 °F 5.0 °F 40% 30.27 in 10.0 mi SSE 11.5 mph 17.3 mph N/A   Overcast
12:35 AM 26.6 °F 16.2 °F 5.0 °F 40% 30.25 in 10.0 mi SSE 11.5 mph 17.3 mph N/A   Mostly Cloudy
12:55 AM 26.6 °F 16.2 °F 5.0 °F 40% 30.23 in 10.0 mi SSE 11.5 mph 17.3 mph N/A   Scattered Clouds
1:15 AM 26.6 °F 16.8 °F 5.0 °F 40% 30.22 in 10.0 mi SSE 10.4 mph 19.6 mph N/A   Scattered Clouds
1:35 AM 26.6 °F 15.7 °F 5.0 °F 40% 30.20 in 10.0 mi SSE 12.7 mph 18.4 mph N/A   Scattered Clouds
1:55 AM 26.6 °F 15.7 °F 6.8 °F 43% 30.18 in 10.0 mi SSE 12.7 mph 24.2 mph N/A   Clear
2:15 AM 26.6 °F 16.8 °F 6.8 °F 43% 30.16 in 10.0 mi SSE 10.4 mph 17.3 mph N/A   Clear
2:35 AM 26.6 °F 16.2 °F 8.6 °F 47% 30.14 in 10.0 mi SSE 11.5 mph 20.7 mph N/A   Clear
2:55 AM 26.6 °F 15.2 °F 8.6 °F 47% 30.13 in 10.0 mi SSE 13.8 mph 19.6 mph N/A   Clear
3:15 AM 26.6 °F 15.2 °F 8.6 °F 47% 30.12 in 10.0 mi South 13.8 mph - N/A   Clear
3:35 AM 26.6 °F 13.8 °F 10.4 °F 51% 30.10 in 10.0 mi South 17.3 mph 23.0 mph N/A   Clear
3:55 AM 26.6 °F 13.4 °F 10.4 °F 51% 30.09 in 10.0 mi South 18.4 mph 24.2 mph N/A   Clear
4:15 AM 26.6 °F 12.7 °F 10.4 °F 51% 30.08 in 10.0 mi South 20.7 mph 27.6 mph N/A   Clear
4:35 AM 26.6 °F 14.7 °F 10.4 °F 51% 30.07 in 10.0 mi South 15.0 mph 27.6 mph N/A   Clear
4:55 AM 26.6 °F 14.3 °F 12.2 °F 55% 30.06 in 10.0 mi South 16.1 mph 20.7 mph N/A   Clear
5:15 AM 26.6 °F 15.2 °F 12.2 °F 55% 30.05 in 10.0 mi South 13.8 mph 24.2 mph N/A   Clear
5:35 AM 26.6 °F 14.7 °F 12.2 °F 55% 30.03 in 10.0 mi South 15.0 mph 24.2 mph N/A   Clear
5:55 AM 26.6 °F 14.7 °F 12.2 °F 55% 30.02 in 10.0 mi South 15.0 mph 25.3 mph N/A   Clear
6:15 AM 26.6 °F 15.2 °F 12.2 °F 55% 30.01 in 10.0 mi South 13.8 mph 25.3 mph N/A   Clear
6:35 AM 28.4 °F 17.5 °F 14.0 °F 55% 30.00 in 10.0 mi South 13.8 mph 21.9 mph N/A   Clear
6:55 AM 26.6 °F 14.7 °F 14.0 °F 59% 29.98 in 10.0 mi South 15.0 mph 24.2 mph N/A   Clear
7:15 AM 28.4 °F 17.0 °F 14.0 °F 55% 29.98 in 10.0 mi South 15.0 mph 24.2 mph N/A   Clear
7:35 AM 28.4 °F 18.5 °F 14.0 °F 55% 29.96 in 10.0 mi South 11.5 mph 21.9 mph N/A   Clear
7:55 AM 30.2 °F 19.8 °F 17.6 °F 60% 29.96 in 10.0 mi South 13.8 mph 21.9 mph N/A   Clear
8:15 AM 32.0 °F 21.2 °F 19.4 °F 60% 29.95 in 10.0 mi SSW 16.1 mph - N/A   Clear
8:35 AM 32.0 °F 19.8 °F 21.2 °F 64% 29.93 in 5.0 mi South 20.7 mph 27.6 mph N/A   Haze
8:55 AM 32.0 °F 20.8 °F 19.4 °F 60% 29.92 in 10.0 mi South 17.3 mph 21.9 mph N/A   Clear
9:15 AM 33.8 °F 23.2 °F 21.2 °F 60% 29.91 in 10.0 mi South 17.3 mph 26.5 mph N/A   Clear
9:35 AM 35.6 °F 25.2 °F 21.2 °F 56% 29.91 in 10.0 mi SSW 18.4 mph 25.3 mph N/A   Clear
9:55 AM 37.4 °F 28.2 °F 24.8 °F 60% 29.91 in 10.0 mi SSW 16.1 mph 21.9 mph N/A   Clear
10:15 AM 41.0 °F 33.9 °F 24.8 °F 53% 29.91 in 10.0 mi SSW 12.7 mph 20.7 mph N/A   Clear
10:35 AM 41.0 °F 34.7 °F 24.8 °F 53% 29.90 in 10.0 mi SSW 10.4 mph 19.6 mph N/A   Clear
10:55 AM 42.8 °F 35.1 °F 24.8 °F 49% 29.90 in 10.0 mi SSW 16.1 mph 23.0 mph N/A   Clear
11:15 AM 42.8 °F 35.1 °F 24.8 °F 49% 29.89 in 10.0 mi SW 16.1 mph 25.3 mph N/A   Clear
11:35 AM 44.6 °F 37.8 °F 24.8 °F 46% 29.89 in 10.0 mi SW 15.0 mph 20.7 mph N/A   Clear
11:55 AM 44.6 °F 38.1 °F 24.8 °F 46% 29.89 in 10.0 mi SSW 13.8 mph 23.0 mph N/A   Clear
12:15 PM 44.6 °F 37.4 °F 26.6 °F 49% 29.88 in 10.0 mi SSW 16.1 mph 20.7 mph N/A   Clear
12:35 PM 46.4 °F 40.1 °F 26.6 °F 46% 29.89 in 10.0 mi SSW 15.0 mph 24.2 mph N/A   Clear
12:55 PM 48.2 °F - 26.6 °F 43% 29.88 in 10.0 mi SSW 16.1 mph - N/A   Clear
1:15 PM 48.2 °F - 26.6 °F 43% 29.88 in 10.0 mi SW 11.5 mph 21.9 mph N/A   Clear
1:35 PM 50.0 °F - 28.4 °F 43% 29.88 in 10.0 mi SW 13.8 mph 26.5 mph N/A   Clear
1:55 PM 51.8 °F - 26.6 °F 38% 29.87 in 10.0 mi SW 13.8 mph 21.9 mph N/A   Clear
2:15 PM 51.8 °F - 26.6 °F 38% 29.88 in 10.0 mi SW 11.5 mph 19.6 mph N/A   Clear
2:35 PM 51.8 °F - 26.6 °F 38% 29.88 in 10.0 mi SW 13.8 mph 25.3 mph N/A   Clear
2:55 PM 51.8 °F - 24.8 °F 35% 29.88 in 10.0 mi SW 13.8 mph 23.0 mph N/A   Clear
3:15 PM 51.8 °F - 24.8 °F 35% 29.88 in 10.0 mi SW 17.3 mph 23.0 mph N/A   Clear
3:35 PM 51.8 °F - 26.6 °F 38% 29.88 in 10.0 mi SSW 15.0 mph 21.9 mph N/A   Clear
3:55 PM 51.8 °F - 26.6 °F 38% 29.88 in 10.0 mi SW 11.5 mph 16.1 mph N/A   Clear
4:15 PM 51.8 °F - 24.8 °F 35% 29.89 in 10.0 mi SW 10.4 mph 17.3 mph N/A   Clear
4:35 PM 51.8 °F - 26.6 °F 38% 29.90 in 10.0 mi WSW 15.0 mph 19.6 mph N/A   Clear
4:55 PM 51.8 °F - 26.6 °F 38% 29.90 in 10.0 mi SW 12.7 mph 21.9 mph N/A   Clear
5:15 PM 51.8 °F - 26.6 °F 38% 29.90 in 10.0 mi SW 10.4 mph 18.4 mph N/A   Clear
5:35 PM 51.8 °F - 28.4 °F 41% 29.90 in 10.0 mi SW 12.7 mph 18.4 mph N/A   Clear
5:55 PM 51.8 °F - 30.2 °F 44% 29.91 in 10.0 mi SW 8.1 mph - N/A   Clear
6:15 PM 51.8 °F - 30.2 °F 44% 29.91 in 10.0 mi SW 4.6 mph - N/A   Clear
6:35 PM 44.6 °F 42.2 °F 28.4 °F 53% 29.92 in 10.0 mi SSW 4.6 mph - N/A   Clear
6:55 PM 48.2 °F - 30.2 °F 50% 29.92 in 10.0 mi SSW 3.5 mph - N/A   Clear
7:15 PM 42.8 °F 41.1 °F 28.4 °F 57% 29.93 in 10.0 mi South 3.5 mph - N/A   Clear
7:35 PM 44.6 °F 42.2 °F 28.4 °F 53% 29.93 in 10.0 mi SSW 4.6 mph - N/A   Clear
7:55 PM 42.8 °F 39.3 °F 30.2 °F 61% 29.93 in 10.0 mi SSW 5.8 mph - N/A   Clear
8:15 PM 44.6 °F 41.4 °F 30.2 °F 57% 29.93 in 10.0 mi South 5.8 mph - N/A   Clear
8:35 PM 42.8 °F 40.1 °F 30.2 °F 61% 29.93 in 10.0 mi SSW 4.6 mph - N/A   Clear
8:55 PM 42.8 °F 40.1 °F 30.2 °F 61% 29.94 in 10.0 mi SSW 4.6 mph - N/A   Clear
9:15 PM 42.8 °F 39.3 °F 30.2 °F 61% 29.94 in 10.0 mi South 5.8 mph - N/A   Clear
9:35 PM 44.6 °F 42.2 °F 30.2 °F 57% 29.94 in 10.0 mi South 4.6 mph - N/A   Clear
9:55 PM 44.6 °F 43.1 °F 30.2 °F 57% 29.95 in 10.0 mi South 3.5 mph - N/A   Clear
10:15 PM 42.8 °F 41.1 °F 30.2 °F 61% 29.95 in 10.0 mi South 3.5 mph - N/A   Clear
10:35 PM 42.8 °F 41.1 °F 28.4 °F 57% 29.95 in 10.0 mi South 3.5 mph - N/A   Clear
10:55 PM 42.8 °F 39.3 °F 30.2 °F 61% 29.95 in 10.0 mi SSW 5.8 mph - N/A   Clear
11:15 PM 42.8 °F 39.3 °F 28.4 °F 57% 29.95 in 10.0 mi SSW 5.8 mph - N/A   Clear
11:35 PM 42.8 °F 40.1 °F 28.4 °F 57% 29.95 in 10.0 mi South 4.6 mph - N/A   Clear
11:55 PM 42.8 °F 39.3 °F 28.4 °F 57% 29.95 in 10.0 mi South 5.8 mph - N/A   Clear